Orange, MA

6:06 PM EDT on April 23, 2018 (GMT -0400)
Orange Municipal

Weather History for KORE - March, 2013

Change the Weather History Date:

Thursday, March 21, 2013

  Actual Average Record
Temperature  
Mean Temperature 24 °F -  
Max Temperature 39 °F 41 °F 75 °F (2012)
Min Temperature 10 °F 22 °F 7 °F (2007)
Degree Days  
Heating Degree Days 42    
Moisture  
Dew Point 11 °F    
Average Humidity 70    
Maximum Humidity 93    
Minimum Humidity 29    
Precipitation  
Precipitation 0.00 in - - ()
Sea Level Pressure  
Sea Level Pressure 29.74 in    
Wind  
Wind Speed 1 mph (WNW)    
Max Wind Speed 9 mph    
Max Gust Speed -    
Visibility 7 miles    
Events      
Averages and records for this station are not official NWS values.
T = Trace of Precipitation, MM = Missing Value Source: NWS Daily Summary

Daily Weather History Graph

Daily Weather History Graph

Search for Another Location

Airport or City:

Astronomy

Mar. 21, 2013 Rise Set
Actual Time 6:50 AM EDT 7:02 PM EDT
Civil Twilight 6:22 AM EDT 7:30 PM EDT
Nautical Twilight 5:49 AM EDT 8:04 PM EDT
Astronomical Twilight 5:15 AM EDT 8:37 PM EDT
Moon 1:23 PM EDT (3/21) 3:16 AM EDT (3/21)
Length of Visible Light 13h 08m
Length of Day
12h 12m
Waxing Gibbous, 68% of the Moon is Illuminated
Mar 21
Waxing Gibbous
Mar 27
Full
Apr 3
Last Quarter
Apr 10
New
Apr 18
First Quarter

Hourly Weather History & Observations

Time (EDT) Temp. Windchill Dew Point Humidity Pressure Visibility Wind Dir Wind Speed Gust Speed Precip Events Conditions
12:52 AM 17.1 °F - 14.0 °F 88% 29.81 in 6.0 mi Calm Calm - N/A   Clear
1:06 AM 17.6 °F - 14.0 °F 86% 29.79 in 2.0 mi Calm Calm - N/A   Clear
1:16 AM 15.8 °F - 14.0 °F 93% 29.79 in 6.0 mi Calm Calm - N/A   Clear
1:34 AM 15.8 °F - 12.2 °F 86% 29.79 in 1.8 mi Calm Calm - N/A   Clear
1:48 AM 15.8 °F - 12.2 °F 86% 29.79 in 3.0 mi Calm Calm - N/A   Clear
1:52 AM 16.0 °F - 12.9 °F 88% 29.82 in 5.0 mi Calm Calm - N/A   Clear
2:52 AM 15.1 °F - 12.9 °F 91% 29.81 in 7.0 mi Calm Calm - N/A   Clear
3:06 AM 14.0 °F - 12.2 °F 93% 29.79 in 1.8 mi Calm Calm - N/A   Clear
3:13 AM 12.2 °F - 10.4 °F 92% 29.79 in 2.5 mi Calm Calm - N/A   Clear
3:20 AM 10.4 °F - 8.6 °F 92% 29.79 in 9.0 mi Calm Calm - N/A   Clear
3:39 AM 10.4 °F - 8.6 °F 92% 29.78 in 1.5 mi Calm Calm - N/A   Clear
3:41 AM 10.4 °F - 8.6 °F 92% 29.78 in 0.8 mi Calm Calm - N/A   Partly Cloudy
3:49 AM 12.2 °F - 8.6 °F 85% 29.78 in 1.2 mi Calm Calm - N/A   Scattered Clouds
3:52 AM 12.9 °F - 9.0 °F 84% 29.80 in 1.5 mi Calm Calm - N/A   Scattered Clouds
3:54 AM 12.2 °F - 10.4 °F 92% 29.77 in 0.8 mi Calm Calm - N/A   Scattered Clouds
4:17 AM 12.2 °F - 8.6 °F 85% 29.77 in 1.8 mi Calm Calm - N/A   Partly Cloudy
4:24 AM 10.4 °F - 6.8 °F 85% 29.77 in 8.0 mi Calm Calm - N/A   Scattered Clouds
4:52 AM 10.0 °F - 6.1 °F 84% 29.79 in 8.0 mi Calm Calm - N/A   Overcast
5:52 AM 10.9 °F - 7.0 °F 84% 29.79 in 7.0 mi Calm Calm - N/A   Mostly Cloudy
6:52 AM 12.0 °F - 9.0 °F 88% 29.79 in 6.0 mi Calm Calm - N/A   Mostly Cloudy
7:52 AM 12.9 °F - 9.0 °F 84% 29.80 in 6.0 mi Calm Calm - N/A   Clear
8:52 AM 18.0 °F - 14.0 °F 84% 29.79 in 6.0 mi Calm Calm - N/A   Scattered Clouds
9:52 AM 25.0 °F - 19.0 °F 78% 29.77 in 10.0 mi Calm Calm - N/A   Mostly Cloudy
10:52 AM 30.0 °F 23.2 °F 12.0 °F 47% 29.75 in 10.0 mi NW 6.9 mph - N/A   Overcast
11:52 AM 32.0 °F - 10.9 °F 42% 29.73 in 10.0 mi Calm Calm - N/A   Mostly Cloudy
12:52 PM 33.1 °F 30.0 °F 9.0 °F 37% 29.70 in 10.0 mi SSE 3.5 mph - N/A   Overcast
1:52 PM 34.0 °F - 9.0 °F 35% 29.67 in 10.0 mi Calm Calm - N/A   Overcast
2:52 PM 37.0 °F - 8.1 °F 30% 29.64 in 10.0 mi Calm Calm - N/A   Overcast
3:52 PM 36.0 °F 30.3 °F 10.9 °F 36% 29.62 in 10.0 mi WNW 6.9 mph - N/A   Overcast
4:52 PM 36.0 °F 31.1 °F 10.9 °F 36% 29.61 in 10.0 mi WNW 5.8 mph - N/A   Mostly Cloudy
5:52 PM 37.9 °F - 8.1 °F 29% 29.61 in 10.0 mi Calm Calm - N/A   Mostly Cloudy
6:52 PM 34.0 °F 29.8 °F 10.0 °F 37% 29.62 in 10.0 mi WNW 4.6 mph - N/A   Scattered Clouds
7:52 PM 32.0 °F 24.2 °F 10.0 °F 40% 29.64 in 10.0 mi WNW 9.2 mph - N/A   Clear
8:52 PM 30.0 °F 23.2 °F 12.0 °F 47% 29.65 in 10.0 mi NW 6.9 mph - N/A   Clear
9:52 PM 28.9 °F 21.9 °F 12.9 °F 51% 29.65 in 10.0 mi NW 6.9 mph - N/A   Clear
10:52 PM 27.0 °F 23.0 °F 12.9 °F 56% 29.64 in 10.0 mi NW 3.5 mph - N/A   Overcast
11:52 PM 27.0 °F 20.5 °F 14.0 °F 58% 29.66 in 10.0 mi WNW 5.8 mph - N/A   Overcast